Time,TemperatureF,DewpointF,PressureIn,WindDirection,WindDirectionDegrees,WindSpeedMPH,WindSpeedGustMPH,Humidity,HourlyPrecipIn,Conditions,Clouds,dailyrainin,SoftwareType,DateUTC
2013-05-02 00:01:00,21.0,17.0,-100.00,ESE,110,0.0,0.0,84,0.00,,,-99.99,,2013-05-02 06:01:00,
2013-05-02 00:11:00,20.0,17.0,-100.00,ESE,106,1.0,2.0,85,0.00,,,-99.99,,2013-05-02 06:11:00,
2013-05-02 00:21:00,21.0,18.0,-100.00,SE,124,0.0,0.0,85,0.00,,,-99.99,,2013-05-02 06:21:00,
2013-05-02 00:31:00,20.0,17.0,-100.00,ESE,102,0.0,0.0,86,0.00,,,-99.99,,2013-05-02 06:31:00,
2013-05-02 00:41:00,20.0,17.0,-100.00,SE,138,0.0,0.0,86,0.00,,,-99.99,,2013-05-02 06:41:00,
2013-05-02 00:51:00,20.0,17.0,-100.00,SSE,147,0.0,1.0,87,0.00,,,-99.99,,2013-05-02 06:51:00,
2013-05-02 01:01:00,22.0,18.0,-100.00,South,178,1.0,2.0,83,0.00,,,-99.99,,2013-05-02 07:01:00,
2013-05-02 01:11:00,23.0,18.0,-100.00,SSW,192,1.0,2.0,83,0.00,,,-99.99,,2013-05-02 07:11:00,
2013-05-02 01:21:00,23.0,18.0,-100.00,SW,226,1.0,3.0,82,0.00,,,-99.99,,2013-05-02 07:21:00,
2013-05-02 01:31:00,24.0,18.0,-100.00,South,189,7.0,8.0,79,0.00,,,-99.99,,2013-05-02 07:31:00,
2013-05-02 01:41:00,23.0,18.0,-100.00,SSW,203,6.0,7.0,81,0.00,,,-99.99,,2013-05-02 07:41:00,
2013-05-02 01:51:00,23.0,17.0,-100.00,SW,227,2.0,4.0,78,0.00,,,-99.99,,2013-05-02 07:51:00,
2013-05-02 02:02:00,23.0,16.0,-100.00,SSE,168,3.0,4.0,75,0.00,,,-99.99,,2013-05-02 08:02:00,
2013-05-02 02:11:00,22.0,16.0,-100.00,SSE,157,8.0,9.0,76,0.00,,,-99.99,,2013-05-02 08:11:00,
2013-05-02 02:21:00,21.0,15.0,-100.00,SSE,152,10.0,11.0,76,0.00,,,-99.99,,2013-05-02 08:21:00,
2013-05-02 02:32:00,23.0,16.0,-100.00,SSE,151,10.0,11.0,74,0.00,,,-99.99,,2013-05-02 08:32:00,
2013-05-02 02:42:00,23.0,15.0,-100.00,SSE,150,11.0,11.0,72,0.00,,,-99.99,,2013-05-02 08:42:00,
2013-05-02 02:52:00,23.0,15.0,-100.00,SSE,150,11.0,11.0,70,0.00,,,-99.99,,2013-05-02 08:52:00,
2013-05-02 03:01:00,22.0,14.0,-100.00,SSE,152,11.0,12.0,70,0.00,,,-99.99,,2013-05-02 09:01:00,
2013-05-02 03:11:00,22.0,14.0,-100.00,SSE,157,11.0,11.0,69,0.00,,,-99.99,,2013-05-02 09:11:00,
2013-05-02 03:21:00,22.0,14.0,-100.00,SSE,157,11.0,11.0,69,0.00,,,-99.99,,2013-05-02 09:21:00,
2013-05-02 03:32:00,22.0,13.0,-100.00,SSE,164,9.0,10.0,66,0.00,,,-99.99,,2013-05-02 09:32:00,
2013-05-02 03:42:00,22.0,12.0,-100.00,SSE,165,9.0,10.0,63,0.00,,,-99.99,,2013-05-02 09:42:00,
2013-05-02 03:52:00,22.0,12.0,-100.00,SSE,158,10.0,11.0,65,0.00,,,-99.99,,2013-05-02 09:52:00,
2013-05-02 04:02:00,22.0,11.0,-100.00,SSE,168,7.0,9.0,62,0.00,,,-99.99,,2013-05-02 10:02:00,
2013-05-02 04:12:00,24.0,11.0,-100.00,SSW,198,9.0,11.0,57,0.00,,,-99.99,,2013-05-02 10:12:00,
2013-05-02 04:22:00,24.0,11.0,-100.00,SSW,199,7.0,9.0,58,0.00,,,-99.99,,2013-05-02 10:22:00,
2013-05-02 04:32:00,23.0,11.0,-100.00,SSW,205,8.0,9.0,59,0.00,,,-99.99,,2013-05-02 10:32:00,
2013-05-02 04:42:00,23.0,11.0,-100.00,SSW,198,8.0,9.0,59,0.00,,,-99.99,,2013-05-02 10:42:00,
2013-05-02 04:52:00,23.0,10.0,-100.00,SSW,213,6.0,7.0,58,0.00,,,-99.99,,2013-05-02 10:52:00,
2013-05-02 05:02:00,22.0,10.0,-100.00,SSW,213,5.0,7.0,58,0.00,,,-99.99,,2013-05-02 11:02:00,
2013-05-02 05:11:00,22.0,10.0,-100.00,NW,309,1.0,4.0,58,0.00,,,-99.99,,2013-05-02 11:11:00,
2013-05-02 05:21:00,22.0,9.0,-100.00,SSW,209,6.0,7.0,57,0.00,,,-99.99,,2013-05-02 11:21:00,
2013-05-02 05:31:00,22.0,9.0,-100.00,SSW,208,2.0,6.0,57,0.00,,,-99.99,,2013-05-02 11:31:00,
2013-05-02 05:41:00,22.0,9.0,-100.00,SSW,208,4.0,6.0,57,0.00,,,-99.99,,2013-05-02 11:41:00,
2013-05-02 05:52:00,22.0,9.0,-100.00,SSW,205,4.0,6.0,55,0.00,,,-99.99,,2013-05-02 11:52:00,
2013-05-02 06:01:00,21.0,8.0,-100.00,SSW,206,1.0,3.0,56,0.00,,,-99.99,,2013-05-02 12:01:00,
2013-05-02 06:11:00,22.0,8.0,-100.00,SSW,203,4.0,5.0,56,0.00,,,-99.99,,2013-05-02 12:11:00,
2013-05-02 06:21:00,22.0,8.0,-100.00,SSW,212,6.0,9.0,54,0.00,,,-99.99,,2013-05-02 12:21:00,
2013-05-02 06:32:00,23.0,9.0,-100.00,SSW,209,6.0,7.0,54,0.00,,,-99.99,,2013-05-02 12:32:00,
2013-05-02 06:41:00,23.0,9.0,-100.00,SSW,210,4.0,6.0,53,0.00,,,-99.99,,2013-05-02 12:41:00,
2013-05-02 06:52:00,21.0,8.0,-100.00,SSW,213,2.0,4.0,55,0.00,,,-99.99,,2013-05-02 12:52:00,
2013-05-02 07:01:00,23.0,8.0,-100.00,SSW,205,6.0,9.0,51,0.00,,,-99.99,,2013-05-02 13:01:00,
2013-05-02 07:11:00,24.0,8.0,-100.00,SSW,212,6.0,7.0,51,0.00,,,-99.99,,2013-05-02 13:11:00,
2013-05-02 07:21:00,24.0,8.0,-100.00,SE,130,1.0,2.0,49,0.00,,,-99.99,,2013-05-02 13:21:00,
2013-05-02 07:31:00,26.0,8.0,-100.00,SW,219,2.0,4.0,47,0.00,,,-99.99,,2013-05-02 13:31:00,
2013-05-02 07:41:00,26.0,9.0,-100.00,SSW,209,3.0,4.0,47,0.00,,,-99.99,,2013-05-02 13:41:00,
2013-05-02 07:52:00,27.0,8.0,-100.00,SSW,206,2.0,2.0,45,0.00,,,-99.99,,2013-05-02 13:52:00,
2013-05-02 08:02:00,27.0,9.0,-100.00,SSE,161,1.0,2.0,46,0.00,,,-99.99,,2013-05-02 14:02:00,
2013-05-02 08:11:00,27.0,9.0,-100.00,SE,144,1.0,2.0,46,0.00,,,-99.99,,2013-05-02 14:11:00,
2013-05-02 08:21:00,29.0,10.0,-100.00,SSE,147,0.0,0.0,43,0.00,,,-99.99,,2013-05-02 14:21:00,
2013-05-02 08:31:00,30.0,9.0,-100.00,SSW,208,2.0,3.0,41,0.00,,,-99.99,,2013-05-02 14:31:00,
2013-05-02 08:42:00,29.0,9.0,-100.00,SSW,199,2.0,3.0,42,0.00,,,-99.99,,2013-05-02 14:42:00,
2013-05-02 08:52:00,29.0,9.0,-100.00,South,191,3.0,4.0,42,0.00,,,-99.99,,2013-05-02 14:52:00,
2013-05-02 09:02:00,31.0,9.0,-100.00,SW,224,1.0,3.0,40,0.00,,,-99.99,,2013-05-02 15:02:00,
2013-05-02 09:11:00,31.0,8.0,-100.00,South,186,1.0,2.0,38,0.00,,,-99.99,,2013-05-02 15:11:00,
2013-05-02 09:21:00,33.0,7.0,-100.00,SW,222,2.0,2.0,34,0.00,,,-99.99,,2013-05-02 15:21:00,
2013-05-02 09:32:00,34.0,8.0,-100.00,SSW,208,1.0,2.0,33,0.00,,,-99.99,,2013-05-02 15:32:00,
2013-05-02 09:43:00,35.0,8.0,-100.00,SSE,162,1.0,2.0,31,0.00,,,-99.99,,2013-05-02 15:43:00,
2013-05-02 10:02:00,39.0,8.0,-100.00,West,274,0.0,2.0,27,0.00,,,-99.99,,2013-05-02 16:02:00,
2013-05-02 10:12:00,40.0,9.0,-100.00,WSW,239,0.0,1.0,28,0.00,,,-99.99,,2013-05-02 16:12:00,
2013-05-02 10:22:00,39.0,7.0,-100.00,SW,233,0.0,1.0,26,0.00,,,-99.99,,2013-05-02 16:22:00,
2013-05-02 10:32:00,39.0,7.0,-100.00,South,189,1.0,2.0,26,0.00,,,-99.99,,2013-05-02 16:32:00,
2013-05-02 10:42:00,39.0,10.0,-100.00,SW,215,1.0,2.0,29,0.00,,,-99.99,,2013-05-02 16:42:00,
2013-05-02 10:52:00,38.0,8.0,-100.00,SSW,199,1.0,2.0,28,0.00,,,-99.99,,2013-05-02 16:52:00,
2013-05-02 11:02:00,38.0,9.0,-100.00,South,188,1.0,2.0,29,0.00,,,-99.99,,2013-05-02 17:02:00,
2013-05-02 11:12:00,40.0,9.0,-100.00,SW,219,2.0,2.0,27,0.00,,,-99.99,,2013-05-02 17:12:00,
2013-05-02 11:22:00,40.0,11.0,-100.00,South,172,1.0,3.0,30,0.00,,,-99.99,,2013-05-02 17:22:00,
2013-05-02 11:31:00,39.0,8.0,-100.00,WSW,237,2.0,2.0,27,0.00,,,-99.99,,2013-05-02 17:31:00,
2013-05-02 11:41:00,39.0,7.0,-100.00,SSW,202,1.0,2.0,27,0.00,,,-99.99,,2013-05-02 17:41:00,
2013-05-02 11:51:00,38.0,8.0,-100.00,ESE,102,1.0,2.0,27,0.00,,,-99.99,,2013-05-02 17:51:00,
2013-05-02 12:01:00,36.0,8.0,-100.00,SSE,151,2.0,3.0,30,0.00,,,-99.99,,2013-05-02 18:01:00,
2013-05-02 12:11:00,36.0,9.0,-100.00,SSE,148,3.0,4.0,32,0.00,,,-99.99,,2013-05-02 18:11:00,
2013-05-02 12:21:00,38.0,8.0,-100.00,SE,141,0.0,1.0,27,0.00,,,-99.99,,2013-05-02 18:21:00,
2013-05-02 12:31:00,38.0,9.0,-100.00,SE,144,2.0,2.0,30,0.00,,,-99.99,,2013-05-02 18:31:00,
2013-05-02 12:41:00,38.0,11.0,-100.00,ESE,109,1.0,2.0,31,0.00,,,-99.99,,2013-05-02 18:41:00,
2013-05-02 12:51:00,37.0,7.0,-100.00,SE,140,2.0,2.0,28,0.00,,,-99.99,,2013-05-02 18:51:00,
2013-05-02 13:01:00,40.0,8.0,-100.00,South,185,0.0,1.0,26,0.00,,,-99.99,,2013-05-02 19:01:00,
2013-05-02 13:11:00,38.0,13.0,-100.00,SE,130,2.0,4.0,35,0.00,,,-99.99,,2013-05-02 19:11:00,
2013-05-02 13:21:00,39.0,11.0,-100.00,East,93,1.0,2.0,31,0.00,,,-99.99,,2013-05-02 19:21:00,
2013-05-02 13:31:00,40.0,10.0,-100.00,East,99,1.0,3.0,29,0.00,,,-99.99,,2013-05-02 19:31:00,
2013-05-02 13:41:00,39.0,6.0,-100.00,ENE,78,4.0,5.0,25,0.00,,,-99.99,,2013-05-02 19:41:00,
2013-05-02 13:52:00,39.0,13.0,-100.00,East,86,4.0,4.0,33,0.00,,,-99.99,,2013-05-02 19:52:00,
2013-05-02 14:01:00,42.0,15.0,-100.00,SSE,165,3.0,5.0,33,0.00,,,-99.99,,2013-05-02 20:01:00,
2013-05-02 14:11:00,42.0,16.0,-100.00,SW,223,1.0,5.0,35,0.00,,,-99.99,,2013-05-02 20:11:00,
2013-05-02 14:21:00,43.0,16.0,-100.00,WSW,244,2.0,3.0,34,0.00,,,-99.99,,2013-05-02 20:21:00,
2013-05-02 14:32:00,43.0,18.0,-100.00,NNE,25,1.0,1.0,37,0.00,,,-99.99,,2013-05-02 20:32:00,
2013-05-02 14:41:00,45.0,24.0,-100.00,WSW,246,2.0,4.0,44,0.00,,,-99.99,,2013-05-02 20:41:00,
2013-05-02 14:52:00,46.0,19.0,-100.00,SSW,199,1.0,4.0,34,0.00,,,-99.99,,2013-05-02 20:52:00,
2013-05-02 15:01:00,44.0,17.0,-100.00,South,191,2.0,4.0,33,0.00,,,-99.99,,2013-05-02 21:01:00,
2013-05-02 15:11:00,44.0,13.0,-100.00,SE,131,4.0,5.0,29,0.00,,,-99.99,,2013-05-02 21:11:00,
2013-05-02 15:21:00,44.0,16.0,-100.00,ENE,75,3.0,4.0,32,0.00,,,-99.99,,2013-05-02 21:21:00,
2013-05-02 15:33:00,44.0,17.0,-100.00,ENE,65,2.0,4.0,33,0.00,,,-99.99,,2013-05-02 21:33:00,
2013-05-02 15:42:00,45.0,15.0,-100.00,East,92,2.0,3.0,29,0.00,,,-99.99,,2013-05-02 21:42:00,
2013-05-02 15:53:00,45.0,18.0,-100.00,East,83,2.0,3.0,33,0.00,,,-99.99,,2013-05-02 21:53:00,
2013-05-02 16:02:00,46.0,18.0,-100.00,NW,322,2.0,3.0,32,0.00,,,-99.99,,2013-05-02 22:02:00,
2013-05-02 16:12:00,47.0,12.0,-100.00,SSW,198,2.0,6.0,24,0.00,,,-99.99,,2013-05-02 22:12:00,
2013-05-02 16:22:00,48.0,18.0,-100.00,SSE,162,1.0,3.0,29,0.00,,,-99.99,,2013-05-02 22:22:00,
2013-05-02 16:32:00,47.0,17.0,-100.00,SE,137,1.0,3.0,29,0.00,,,-99.99,,2013-05-02 22:32:00,
2013-05-02 16:42:00,47.0,23.0,-100.00,NW,311,2.0,4.0,39,0.00,,,-99.99,,2013-05-02 22:42:00,
2013-05-02 16:52:00,47.0,20.0,-100.00,East,82,2.0,4.0,33,0.00,,,-99.99,,2013-05-02 22:52:00,
2013-05-02 17:02:00,47.0,17.0,-100.00,East,86,2.0,5.0,30,0.00,,,-99.99,,2013-05-02 23:02:00,
2013-05-02 17:11:00,47.0,12.0,-100.00,SE,138,2.0,4.0,24,0.00,,,-99.99,,2013-05-02 23:11:00,
2013-05-02 17:22:00,47.0,5.0,-100.00,East,99,2.0,3.0,18,0.00,,,-99.99,,2013-05-02 23:22:00,
2013-05-02 17:31:00,47.0,9.0,-100.00,SSE,150,4.0,6.0,21,0.00,,,-99.99,,2013-05-02 23:31:00,
2013-05-02 17:42:00,48.0,4.0,-100.00,SSE,152,1.0,3.0,16,0.00,,,-99.99,,2013-05-02 23:42:00,
2013-05-02 17:51:00,49.0,9.0,-100.00,ESE,106,1.0,2.0,19,0.00,,,-99.99,,2013-05-02 23:51:00,
2013-05-02 18:01:00,49.0,7.0,-100.00,SE,145,4.0,5.0,18,0.00,,,-99.99,,2013-05-03 00:01:00,
2013-05-02 18:11:00,49.0,16.0,-100.00,SSW,212,4.0,7.0,26,0.00,,,-99.99,,2013-05-03 00:11:00,
2013-05-02 18:21:00,49.0,0.0,-100.00,SW,229,4.0,6.0,13,0.00,,,-99.99,,2013-05-03 00:21:00,
2013-05-02 18:31:00,50.0,8.0,-100.00,SSW,193,2.0,5.0,18,0.00,,,-99.99,,2013-05-03 00:31:00,
2013-05-02 18:41:00,49.0,4.0,-100.00,SE,140,2.0,4.0,16,0.00,,,-99.99,,2013-05-03 00:41:00,
2013-05-02 18:52:00,50.0,8.0,-100.00,WNW,296,2.0,4.0,18,0.00,,,-99.99,,2013-05-03 00:52:00,
2013-05-02 19:01:00,50.0,7.0,-100.00,SW,236,4.0,5.0,17,0.00,,,-99.99,,2013-05-03 01:01:00,
2013-05-02 19:11:00,49.0,7.0,-100.00,WNW,288,2.0,4.0,18,0.00,,,-99.99,,2013-05-03 01:11:00,
2013-05-02 19:21:00,48.0,5.0,-100.00,North,352,1.0,2.0,17,0.00,,,-99.99,,2013-05-03 01:21:00,
2013-05-02 19:31:00,50.0,11.0,-100.00,SSW,212,1.0,2.0,21,0.00,,,-99.99,,2013-05-03 01:31:00,
2013-05-02 19:41:00,48.0,9.0,-100.00,East,99,3.0,4.0,20,0.00,,,-99.99,,2013-05-03 01:41:00,
2013-05-02 19:51:00,47.0,13.0,-100.00,ESE,117,4.0,6.0,26,0.00,,,-99.99,,2013-05-03 01:51:00,
2013-05-02 20:01:00,46.0,5.0,-100.00,ESE,117,5.0,6.0,18,0.00,,,-99.99,,2013-05-03 02:01:00,
2013-05-02 20:11:00,46.0,9.0,-100.00,ESE,113,6.0,6.0,21,0.00,,,-99.99,,2013-05-03 02:11:00,
2013-05-02 20:21:00,45.0,5.0,-100.00,ESE,120,6.0,7.0,18,0.00,,,-99.99,,2013-05-03 02:21:00,
2013-05-02 20:31:00,45.0,11.0,-100.00,SE,130,9.0,10.0,24,0.00,,,-99.99,,2013-05-03 02:31:00,
2013-05-02 20:41:00,44.0,12.0,-100.00,SE,145,7.0,9.0,26,0.00,,,-99.99,,2013-05-03 02:41:00,
2013-05-02 20:52:00,44.0,15.0,-100.00,SSE,155,7.0,9.0,29,0.00,,,-99.99,,2013-05-03 02:52:00,
2013-05-02 21:01:00,40.0,20.0,-100.00,SSE,151,10.0,11.0,43,0.00,,,-99.99,,2013-05-03 03:01:00,
2013-05-02 21:11:00,41.0,20.0,-100.00,SSE,162,9.0,12.0,43,0.00,,,-99.99,,2013-05-03 03:11:00,
2013-05-02 21:21:00,43.0,21.0,-100.00,SW,226,7.0,12.0,40,0.00,,,-99.99,,2013-05-03 03:21:00,
2013-05-02 21:32:00,44.0,18.0,-100.00,SSW,208,11.0,15.0,36,0.00,,,-99.99,,2013-05-03 03:32:00,
2013-05-02 21:42:00,44.0,17.0,-100.00,SW,217,5.0,8.0,33,0.00,,,-99.99,,2013-05-03 03:42:00,
2013-05-02 21:52:00,45.0,16.0,-100.00,SSW,209,7.0,9.0,31,0.00,,,-99.99,,2013-05-03 03:52:00,
2013-05-02 22:02:00,44.0,18.0,-100.00,SSW,208,9.0,11.0,34,0.00,,,-99.99,,2013-05-03 04:02:00,
2013-05-02 22:12:00,44.0,16.0,-100.00,SSW,206,9.0,14.0,32,0.00,,,-99.99,,2013-05-03 04:12:00,
2013-05-02 22:22:00,44.0,16.0,-100.00,SSW,202,11.0,13.0,32,0.00,,,-99.99,,2013-05-03 04:22:00,
2013-05-02 22:32:00,44.0,15.0,-100.00,SSW,205,7.0,11.0,30,0.00,,,-99.99,,2013-05-03 04:32:00,
2013-05-02 22:42:00,45.0,12.0,-100.00,SW,216,9.0,14.0,25,0.00,,,-99.99,,2013-05-03 04:42:00,
2013-05-02 22:52:00,44.0,14.0,-100.00,WSW,247,4.0,6.0,30,0.00,,,-99.99,,2013-05-03 04:52:00,
2013-05-02 23:02:00,43.0,16.0,-100.00,SW,217,6.0,8.0,33,0.00,,,-99.99,,2013-05-03 05:02:00,
2013-05-02 23:11:00,42.0,16.0,-100.00,SW,220,4.0,6.0,34,0.00,,,-99.99,,2013-05-03 05:11:00,
2013-05-02 23:21:00,42.0,17.0,-100.00,SW,219,4.0,6.0,36,0.00,,,-99.99,,2013-05-03 05:21:00,
2013-05-02 23:32:00,42.0,15.0,-100.00,WSW,239,1.0,2.0,33,0.00,,,-99.99,,2013-05-03 05:32:00,
2013-05-02 23:42:00,42.0,15.0,-100.00,ESE,103,1.0,2.0,33,0.00,,,-99.99,,2013-05-03 05:42:00,
2013-05-02 23:52:00,40.0,18.0,-100.00,ENE,64,2.0,4.0,40,0.00,,,-99.99,,2013-05-03 05:52:00,